Printer-friendly version

IAU Minor Planet Center

Minor Planet Center

MPEC 2006-B30 : 2006 BO6

The following Minor Planet Electronic Circular may be linked-to from your own Web pages, but must not otherwise be redistributed electronically.


Read MPEC 2006-B29 Read MPEC 2006-B31


M.P.E.C. 2006-B30                                Issued 2006 Jan. 24, 03:00 UT

     The Minor Planet Electronic Circulars contain information on unusual
         minor planets and routine data on comets.  They are published
   on behalf of Commission 20 of the International Astronomical Union by the
          Minor Planet Center, Smithsonian Astrophysical Observatory,
                          Cambridge, MA 02138, U.S.A.

                  Supported in part by the Brinson Foundation
                  Supported in part by the TABASGO Foundation
             Prepared using the Tamkin Foundation Computer Network

                              MPC@CFA.HARVARD.EDU
          URL http://cfa-www.harvard.edu/iau/mpc.html  ISSN 1523-6714

                                   2006 BO6

Observations:
     K06B06O* C2006 01 22.10505 03 28 55.92 +18 21 34.2          19.2 V EB030G96
     K06B06O  C2006 01 22.11112 03 29 01.96 +18 21 14.3          19.7 V EB030G96
     K06B06O  C2006 01 22.11716 03 29 07.98 +18 20 54.7          19.8 V EB030G96
     K06B06O  C2006 01 22.12319 03 29 14.02 +18 20 34.9          19.6 V EB030G96
     K06B06O  C2006 01 22.14036 03 29 31.16 +18 19 38.6          19.8 V EB030G96
     K06B06O  C2006 01 22.14874 03 29 39.48 +18 19 11.6          19.7 V EB030G96
     K06B06O  C2006 01 22.15306 03 29 43.90 +18 18 57.6          19.7 R EB030854
     K06B06O  C2006 01 22.15711 03 29 47.86 +18 18 43.7          19.7 V EB030G96
     K06B06O  C2006 01 22.15905 03 29 49.86 +18 18 38.6          19.8 R EB030854
     K06B06O  C2006 01 22.16506 03 29 55.75 +18 18 17.6          19.6 R EB030854
     K06B06O 5C2006 01 22.19278 03 30 24.18 +18 16 44.1          19.5 R EB030673
     K06B06O 5C2006 01 22.19734 03 30 28.73 +18 16 29.1                 EB030673
     K06B06O 5C2006 01 22.20567 03 30 37.07 +18 16 01.8                 EB030673
     K06B06O 5C2006 01 22.21134 03 30 42.78 +18 15 42.3                 EB030673
     K06B06O EC2006 01 22.94065 03 43 11.35 +17 34 01.2                 EB030J95
     K06B06O EC2006 01 22.94560 03 43 16.30 +17 33 42.5                 EB030J95
     K06B06O FC2006 01 22.95310 03 43 24.34 +17 33 16.9          20.0 R EB030J95
     K06B06O  C2006 01 23.05091 03 45 07.72 +17 27 51.9          20.3 R EB030734
     K06B06O  C2006 01 23.05363 03 45 10.41 +17 27 42.4          19.5 R EB030734
     K06B06O  C2006 01 23.06128 03 45 18.10 +17 27 15.4          19.8 R EB030734
     K06B06O  C2006 01 23.06346 03 45 20.28 +17 27 07.2          20.3 R EB030734
     K06B06O  C2006 01 23.13415 03 46 31.76 +17 23 05.0          19.5 V EB030G96
     K06B06O  C2006 01 23.13488 03 46 32.48 +17 23 02.1          19.6 V EB030G96
     K06B06O  C2006 01 23.13560 03 46 33.20 +17 22 59.6          19.4 V EB030G96
     K06B06O  C2006 01 23.13631 03 46 33.88 +17 22 57.1          19.4 V EB030G96
     K06B06O  C2006 01 23.78095 03 57 31.64 +16 43 17.7          19.3 R EB030143
     K06B06O  C2006 01 23.79310 03 57 43.64 +16 42 33.7          19.8 R EB030143
     K06B06O  C2006 01 23.85619 03 58 45.70 +16 38 33.6                 EB030246
     K06B06O  C2006 01 23.85709 03 58 46.71 +16 38 28.3                 EB030246
     K06B06O  C2006 01 23.85764 03 58 47.21 +16 38 26.3                 EB030246
     K06B06O  C2006 01 23.85975 03 58 49.41 +16 38 18.0                 EB030246
     K06B06O  C2006 01 24.06358 04 02 18.03 +16 25 38.8          20.1 R EB030734
     K06B06O  C2006 01 24.06594 04 02 20.30 +16 25 29.3          19.4 R EB030734
     K06B06O  C2006 01 24.07643 04 02 30.64 +16 24 50.6          19.9 R EB030734

Observer details:
143 Gnosca.  Observer S. Sposetti.  0.40-m f/4 reflector + CCD.
246 Klet Observatory-KLENOT.  Observers J. Ticha, M. Tichy.  Measurer M. Tichy.
    1.06-m KLENOT Telescope + CCD.
673 Table Mountain Observatory, Wrightwood.  Observer J. Young.  0.6-m f/16
    Cassegrain + CCD.
734 Farpoint Observatory.  Observer D. Tibbets.  Measurer G. Hug.  0.7-m
    reflector + CCD.
854 Sabino Canyon Observatory, Tucson.  Observer J. E. McGaha.  0.36-m f/10.0
    Schmidt-Cassegrain + CCD.
G96 Mt. Lemmon Survey.  Observer E. C. Beshore.  Measurers E. C. Beshore,
    E. J. Christensen, G. J. Garradd, A. D. Grauer, R. E. Hill, R. A. Kowalski,
    S. M. Larson, R. H. McNaught.  1.5-m reflector + CCD.
J95 Great Shefford.  Observer P. Birtwhistle.  0.40-m f/6.0 Schmidt-Cassegrain
    + CCD.

Orbital elements:
2006 BO6                                                 Earth MOID = 0.0309 AU
Epoch 2006 Jan. 5.0 TT = JDT 2453740.5                  MPC
M   1.09672              (2000.0)            P               Q
n   0.18878348     Peri.  151.17409     +0.04449706     -0.98802510
a   3.0094933      Node   295.93765     +0.88217950     +0.10825901
e   0.6750397      Incl.    9.45576     +0.46880630     -0.10993809
P   5.22           H   22.5           G   0.15
From 32 observations 2006 Jan. 22-24.

Ephemeris:
2006 BO6                 a,e,i = 3.01, 0.68, 9                   q = 0.9780
Date    TT    R. A. (2000) Decl.     Delta      r     Elong.  Phase     V
2006 01 15    01 36.74   +22 04.5    0.123    1.004    95.8    77.2    20.7
2006 01 25    04 17.86   +15 25.2    0.110    1.044   120.3    54.5    19.8
2006 02 04    06 27.26   +04 59.6    0.147    1.100   138.6    36.3    20.0
2006 02 14    07 34.33   -00 24.8    0.215    1.168   143.9    29.9    20.8
2006 02 24    08 11.68   -02 31.1    0.300    1.245   144.0    27.9    21.6

Gareth V. Williams           (C) Copyright 2006 MPC           M.P.E.C. 2006-B30

Read MPEC 2006-B29 Read MPEC 2006-B31


Our Web policy. Index to the CBAT/MPC/ICQ pages.


Valid HTML 4.01!